Year,Month,Day,Hour,Minute,Value (Times are PST for temperature in C)
2017,08,01,00,00,18.30
2017,08,01,00,01,18.30
2017,08,01,00,02,18.30
2017,08,01,00,03,18.30
2017,08,01,00,04,18.20
2017,08,01,00,05,18.20
2017,08,01,00,06,18.20
2017,08,01,00,07,18.10
2017,08,01,00,08,18.10
2017,08,01,00,09,18.00
2017,08,01,00,10,18.00
2017,08,01,00,11,18.00
2017,08,01,00,12,17.90
2017,08,01,00,13,17.90
2017,08,01,00,14,17.90
2017,08,01,00,15,17.90
2017,08,01,00,16,17.90
2017,08,01,00,17,17.90
2017,08,01,00,18,17.90
2017,08,01,00,19,17.90
2017,08,01,00,20,17.90
2017,08,01,00,21,17.90
2017,08,01,00,22,17.90
2017,08,01,00,23,17.90
2017,08,01,00,24,17.90
2017,08,01,00,25,17.90
2017,08,01,00,26,17.90
2017,08,01,00,27,17.90
2017,08,01,00,28,17.90
2017,08,01,00,29,17.90
2017,08,01,00,30,17.90
2017,08,01,00,31,18.00
2017,08,01,00,32,18.00
2017,08,01,00,33,18.00
2017,08,01,00,34,18.10
2017,08,01,00,35,18.10
2017,08,01,00,36,18.10
2017,08,01,00,37,18.10
2017,08,01,00,38,18.10
2017,08,01,00,39,18.10
2017,08,01,00,40,18.10
2017,08,01,00,41,18.10
2017,08,01,00,42,18.10
2017,08,01,00,43,18.10
2017,08,01,00,44,18.10
2017,08,01,00,45,18.10
2017,08,01,00,46,18.10
2017,08,01,00,47,18.00
2017,08,01,00,48,18.00
2017,08,01,00,49,18.00
2017,08,01,00,50,17.90
2017,08,01,00,51,17.90
2017,08,01,00,52,17.90
2017,08,01,00,53,17.80
2017,08,01,00,54,17.80
2017,08,01,00,55,17.80
2017,08,01,00,56,17.80
2017,08,01,00,57,17.80
2017,08,01,00,58,17.80
2017,08,01,00,59,17.80
2017,08,01,01,00,17.80
2017,08,01,01,01,17.80
2017,08,01,01,02,17.70
2017,08,01,01,03,17.70
2017,08,01,01,04,17.70
2017,08,01,01,05,17.60
2017,08,01,01,06,17.60
2017,08,01,01,07,17.60
2017,08,01,01,08,17.50
2017,08,01,01,09,17.50
2017,08,01,01,10,17.50
2017,08,01,01,11,17.40
2017,08,01,01,12,17.40
2017,08,01,01,13,17.40
2017,08,01,01,14,17.40
2017,08,01,01,15,17.40
2017,08,01,01,16,17.30
2017,08,01,01,17,17.30
2017,08,01,01,18,17.30
2017,08,01,01,19,17.30
2017,08,01,01,20,17.30
2017,08,01,01,21,17.20
2017,08,01,01,22,17.20
2017,08,01,01,23,17.20
2017,08,01,01,24,17.20
2017,08,01,01,25,17.20
2017,08,01,01,26,17.10
2017,08,01,01,27,17.10
2017,08,01,01,28,17.10
2017,08,01,01,29,17.10
2017,08,01,01,30,17.00
2017,08,01,01,31,17.00
2017,08,01,01,32,17.00
2017,08,01,01,33,17.00
2017,08,01,01,34,17.00
2017,08,01,01,35,16.90
2017,08,01,01,36,16.90
2017,08,01,01,37,16.90
2017,08,01,01,38,16.90
2017,08,01,01,39,16.90
2017,08,01,01,40,16.90
2017,08,01,01,41,16.90
2017,08,01,01,42,16.90
2017,08,01,01,43,16.90
2017,08,01,01,44,16.90
2017,08,01,01,45,16.90
2017,08,01,01,46,16.90
2017,08,01,01,47,16.90
2017,08,01,01,48,16.90
2017,08,01,01,49,16.90
2017,08,01,01,50,16.80
2017,08,01,01,51,16.80
2017,08,01,01,52,16.80
2017,08,01,01,53,16.80
2017,08,01,01,54,16.80
2017,08,01,01,55,16.80
2017,08,01,01,56,16.70
2017,08,01,01,57,16.70
2017,08,01,01,58,16.70
2017,08,01,01,59,16.70
2017,08,01,02,00,16.70
2017,08,01,02,01,16.70
2017,08,01,02,02,16.60
2017,08,01,02,03,16.60
2017,08,01,02,04,16.60
2017,08,01,02,05,16.60
2017,08,01,02,06,16.50
2017,08,01,02,07,16.50
2017,08,01,02,08,16.50
2017,08,01,02,09,16.50
2017,08,01,02,10,16.40
2017,08,01,02,11,16.40
2017,08,01,02,12,16.40
2017,08,01,02,13,16.40
2017,08,01,02,14,16.40
2017,08,01,02,15,16.40
2017,08,01,02,16,16.40
2017,08,01,02,17,16.40
2017,08,01,02,18,16.40
2017,08,01,02,19,16.40
2017,08,01,02,20,16.40
2017,08,01,02,21,16.30
2017,08,01,02,22,16.30
2017,08,01,02,23,16.30
2017,08,01,02,24,16.30
2017,08,01,02,25,16.30
2017,08,01,02,26,16.30
2017,08,01,02,27,16.30
2017,08,01,02,28,16.30
2017,08,01,02,29,16.30
2017,08,01,02,30,16.30
2017,08,01,02,31,16.30
2017,08,01,02,32,16.30
2017,08,01,02,33,16.30
2017,08,01,02,34,16.30
2017,08,01,02,35,16.30
2017,08,01,02,36,16.30
2017,08,01,02,37,16.30
2017,08,01,02,38,16.30
2017,08,01,02,39,16.30
2017,08,01,02,40,16.30
2017,08,01,02,41,16.30
2017,08,01,02,42,16.20
2017,08,01,02,43,16.20
2017,08,01,02,44,16.20
2017,08,01,02,45,16.20
2017,08,01,02,46,16.20
2017,08,01,02,47,16.20
2017,08,01,02,48,16.10
2017,08,01,02,49,16.10
2017,08,01,02,50,16.10
2017,08,01,02,51,16.00
2017,08,01,02,52,16.00
2017,08,01,02,53,16.00
2017,08,01,02,54,15.90
2017,08,01,02,55,15.90
2017,08,01,02,56,15.90
2017,08,01,02,57,15.80
2017,08,01,02,58,15.80
2017,08,01,02,59,15.80
2017,08,01,03,00,15.70
2017,08,01,03,01,15.70
2017,08,01,03,02,15.60
2017,08,01,03,03,15.60
2017,08,01,03,04,15.60
2017,08,01,03,05,15.60
2017,08,01,03,06,15.60
2017,08,01,03,07,15.50
2017,08,01,03,08,15.50
2017,08,01,03,09,15.40
2017,08,01,03,10,15.40
2017,08,01,03,11,15.40
2017,08,01,03,12,15.30
2017,08,01,03,13,15.30
2017,08,01,03,14,15.30
2017,08,01,03,15,15.20
2017,08,01,03,16,15.20
2017,08,01,03,17,15.20
2017,08,01,03,18,15.20
2017,08,01,03,19,15.20
2017,08,01,03,20,15.20
2017,08,01,03,21,15.20
2017,08,01,03,22,15.10
2017,08,01,03,23,15.10
2017,08,01,03,24,15.10
2017,08,01,03,25,15.10
2017,08,01,03,26,15.10
2017,08,01,03,27,15.10
2017,08,01,03,28,15.10
2017,08,01,03,29,15.20
2017,08,01,03,30,15.20
2017,08,01,03,31,15.20
2017,08,01,03,32,15.20
2017,08,01,03,33,15.20
2017,08,01,03,34,15.20
2017,08,01,03,35,15.20
2017,08,01,03,36,15.30
2017,08,01,03,37,15.30
2017,08,01,03,38,15.30
2017,08,01,03,39,15.30
2017,08,01,03,40,15.30
2017,08,01,03,41,15.30
2017,08,01,03,42,15.30
2017,08,01,03,43,15.30
2017,08,01,03,44,15.30
2017,08,01,03,45,15.30
2017,08,01,03,46,15.30
2017,08,01,03,47,15.30
2017,08,01,03,48,15.30
2017,08,01,03,49,15.30
2017,08,01,03,50,15.30
2017,08,01,03,51,15.30
2017,08,01,03,52,15.30
2017,08,01,03,53,15.30
2017,08,01,03,54,15.30
2017,08,01,03,55,15.30
2017,08,01,03,56,15.30
2017,08,01,03,57,15.30
2017,08,01,03,58,15.30
2017,08,01,03,59,15.30
2017,08,01,04,00,15.20
2017,08,01,04,01,15.20
2017,08,01,04,02,15.20
2017,08,01,04,03,15.20
2017,08,01,04,04,15.20
2017,08,01,04,05,15.20
2017,08,01,04,06,15.10
2017,08,01,04,07,15.10
2017,08,01,04,08,15.00
2017,08,01,04,09,15.00
2017,08,01,04,10,15.00
2017,08,01,04,11,15.00
2017,08,01,04,12,15.00
2017,08,01,04,13,15.00
2017,08,01,04,14,15.00
2017,08,01,04,15,15.00
2017,08,01,04,16,15.00
2017,08,01,04,17,15.00
2017,08,01,04,18,15.00
2017,08,01,04,19,15.00
2017,08,01,04,20,15.00
2017,08,01,04,21,15.00
2017,08,01,04,22,15.00
2017,08,01,04,23,15.00
2017,08,01,04,24,15.00
2017,08,01,04,25,15.00
2017,08,01,04,26,15.00
2017,08,01,04,27,15.00
2017,08,01,04,28,15.00
2017,08,01,04,29,15.00
2017,08,01,04,30,15.00
2017,08,01,04,31,14.90
2017,08,01,04,32,14.90
2017,08,01,04,33,14.90
2017,08,01,04,34,14.90
2017,08,01,04,35,14.90
2017,08,01,04,36,14.90
2017,08,01,04,37,14.90
2017,08,01,04,38,14.90
2017,08,01,04,39,14.90
2017,08,01,04,40,14.90
2017,08,01,04,41,14.80
2017,08,01,04,42,14.80
2017,08,01,04,43,14.80
2017,08,01,04,44,14.80
2017,08,01,04,45,14.80
2017,08,01,04,46,14.80
2017,08,01,04,47,14.70
2017,08,01,04,48,14.70
2017,08,01,04,49,14.70
2017,08,01,04,50,14.70
2017,08,01,04,51,14.70
2017,08,01,04,52,14.70
2017,08,01,04,53,14.70
2017,08,01,04,54,14.70
2017,08,01,04,55,14.70
2017,08,01,04,56,14.70
2017,08,01,04,57,14.70
2017,08,01,04,58,14.60
2017,08,01,04,59,14.60
2017,08,01,05,00,14.60
2017,08,01,05,01,14.60
2017,08,01,05,02,14.60
2017,08,01,05,03,14.60
2017,08,01,05,04,14.60
2017,08,01,05,05,14.60
2017,08,01,05,06,14.60
2017,08,01,05,07,14.60
2017,08,01,05,08,14.50
2017,08,01,05,09,14.50
2017,08,01,05,10,14.50
2017,08,01,05,11,14.50
2017,08,01,05,12,14.40
2017,08,01,05,13,14.40
2017,08,01,05,14,14.40
2017,08,01,05,15,14.40
2017,08,01,05,16,14.40
2017,08,01,05,17,14.40
2017,08,01,05,18,14.40
2017,08,01,05,19,14.40
2017,08,01,05,20,14.40
2017,08,01,05,21,14.30
2017,08,01,05,22,14.30
2017,08,01,05,23,14.30
2017,08,01,05,24,14.30
2017,08,01,05,25,14.30
2017,08,01,05,26,14.20
2017,08,01,05,27,14.20
2017,08,01,05,28,14.20
2017,08,01,05,29,14.20
2017,08,01,05,30,14.20
2017,08,01,05,31,14.10
2017,08,01,05,32,14.10
2017,08,01,05,33,14.10
2017,08,01,05,34,14.10
2017,08,01,05,35,14.10
2017,08,01,05,36,14.10
2017,08,01,05,37,14.10
2017,08,01,05,38,14.10
2017,08,01,05,39,14.10
2017,08,01,05,40,14.10
2017,08,01,05,41,14.10
2017,08,01,05,42,14.00
2017,08,01,05,43,14.00
2017,08,01,05,44,14.00
2017,08,01,05,45,14.00
2017,08,01,05,46,14.00
2017,08,01,05,47,13.90
2017,08,01,05,48,13.90
2017,08,01,05,49,13.80
2017,08,01,05,50,13.80
2017,08,01,05,51,13.80
2017,08,01,05,52,13.80
2017,08,01,05,53,13.80
2017,08,01,05,54,13.80
2017,08,01,05,55,13.80
2017,08,01,05,56,13.80
2017,08,01,05,57,13.80
2017,08,01,05,58,13.80
2017,08,01,05,59,13.80
2017,08,01,06,00,13.80
2017,08,01,06,01,13.80
2017,08,01,06,02,13.80
2017,08,01,06,03,13.80
2017,08,01,06,04,13.80
2017,08,01,06,05,13.80
2017,08,01,06,06,13.80
2017,08,01,06,07,13.80
2017,08,01,06,08,13.80
2017,08,01,06,09,13.80
2017,08,01,06,10,13.80
2017,08,01,06,11,13.80
2017,08,01,06,12,13.70
2017,08,01,06,13,13.70
2017,08,01,06,14,13.70
2017,08,01,06,15,13.70
2017,08,01,06,16,13.70
2017,08,01,06,17,13.70
2017,08,01,06,18,13.70
2017,08,01,06,19,13.70
2017,08,01,06,20,13.70
2017,08,01,06,21,13.70
2017,08,01,06,22,13.70
2017,08,01,06,23,13.70
2017,08,01,06,24,13.70
2017,08,01,06,25,13.70
2017,08,01,06,26,13.70
2017,08,01,06,27,13.70
2017,08,01,06,28,13.70
2017,08,01,06,29,13.80
2017,08,01,06,30,13.80
2017,08,01,06,31,13.80
2017,08,01,06,32,13.80
2017,08,01,06,33,13.80
2017,08,01,06,34,13.80
2017,08,01,06,35,13.90
2017,08,01,06,36,13.90
2017,08,01,06,37,13.90
2017,08,01,06,38,13.90
2017,08,01,06,39,13.90
2017,08,01,06,40,14.00
2017,08,01,06,41,14.00
2017,08,01,06,42,14.00
2017,08,01,06,43,13.90
2017,08,01,06,44,13.90
2017,08,01,06,45,13.90
2017,08,01,06,46,13.90
2017,08,01,06,47,14.00
2017,08,01,06,48,14.00
2017,08,01,06,49,14.00
2017,08,01,06,50,14.00
2017,08,01,06,51,14.00
2017,08,01,06,52,14.10
2017,08,01,06,53,14.10
2017,08,01,06,54,14.10
2017,08,01,06,55,14.10
2017,08,01,06,56,14.10
2017,08,01,06,57,14.20
2017,08,01,06,58,14.20
2017,08,01,06,59,14.20
2017,08,01,07,00,14.20
2017,08,01,07,01,14.20
2017,08,01,07,02,14.30
2017,08,01,07,03,14.30
2017,08,01,07,04,14.30
2017,08,01,07,05,14.30
2017,08,01,07,06,14.40
2017,08,01,07,07,14.40
2017,08,01,07,08,14.40
2017,08,01,07,09,14.40
2017,08,01,07,10,14.40
2017,08,01,07,11,14.40
2017,08,01,07,12,14.50
2017,08,01,07,13,14.50
2017,08,01,07,14,14.50
2017,08,01,07,15,14.60
2017,08,01,07,16,14.60
2017,08,01,07,17,14.60
2017,08,01,07,18,14.60
2017,08,01,07,19,14.60
2017,08,01,07,20,14.60
2017,08,01,07,21,14.70
2017,08,01,07,22,14.70
2017,08,01,07,23,14.70
2017,08,01,07,24,14.70
2017,08,01,07,25,14.80
2017,08,01,07,26,14.80
2017,08,01,07,27,14.90
2017,08,01,07,28,15.00
2017,08,01,07,29,15.00
2017,08,01,07,30,15.00
2017,08,01,07,31,15.00
2017,08,01,07,32,15.00
2017,08,01,07,33,15.00
2017,08,01,07,34,15.00
2017,08,01,07,35,15.00
2017,08,01,07,36,15.00
2017,08,01,07,37,15.00
2017,08,01,07,38,15.00
2017,08,01,07,39,15.00
2017,08,01,07,40,15.00
2017,08,01,07,41,15.00
2017,08,01,07,42,15.10
2017,08,01,07,43,15.20
2017,08,01,07,44,15.20
2017,08,01,07,45,15.30
2017,08,01,07,46,15.30
2017,08,01,07,47,15.30
2017,08,01,07,48,15.40
2017,08,01,07,49,15.40
2017,08,01,07,50,15.50
2017,08,01,07,51,15.50
2017,08,01,07,52,15.60
2017,08,01,07,53,15.60
2017,08,01,07,54,15.60
2017,08,01,07,55,15.70
2017,08,01,07,56,15.70
2017,08,01,07,57,15.80
2017,08,01,07,58,15.80
2017,08,01,07,59,15.80
2017,08,01,08,00,15.90
2017,08,01,08,01,15.90
2017,08,01,08,02,15.90
2017,08,01,08,03,16.00
2017,08,01,08,04,16.00
2017,08,01,08,05,16.10
2017,08,01,08,06,16.10
2017,08,01,08,07,16.20
2017,08,01,08,08,16.20
2017,08,01,08,09,16.20
2017,08,01,08,10,16.30
2017,08,01,08,11,16.30
2017,08,01,08,12,16.30
2017,08,01,08,13,16.40
2017,08,01,08,14,16.40
2017,08,01,08,15,16.50
2017,08,01,08,16,16.50
2017,08,01,08,17,16.60
2017,08,01,08,18,16.60
2017,08,01,08,19,16.70
2017,08,01,08,20,16.70
2017,08,01,08,21,16.80
2017,08,01,08,22,16.80
2017,08,01,08,23,16.80
2017,08,01,08,24,16.90
2017,08,01,08,25,17.00
2017,08,01,08,26,17.00
2017,08,01,08,27,17.10
2017,08,01,08,28,17.10
2017,08,01,08,29,17.10
2017,08,01,08,30,17.20
2017,08,01,08,31,17.20
2017,08,01,08,32,17.30
2017,08,01,08,33,17.30
2017,08,01,08,34,17.40
2017,08,01,08,35,17.40
2017,08,01,08,36,17.40
2017,08,01,08,37,17.50
2017,08,01,08,38,17.60
2017,08,01,08,39,17.60
2017,08,01,08,40,17.70
2017,08,01,08,41,17.70
2017,08,01,08,42,17.70
2017,08,01,08,43,17.80
2017,08,01,08,44,17.80
2017,08,01,08,45,17.90
2017,08,01,08,46,17.90
2017,08,01,08,47,18.00
2017,08,01,08,48,18.10
2017,08,01,08,49,18.10
2017,08,01,08,50,18.20
2017,08,01,08,51,18.20
2017,08,01,08,52,18.30
2017,08,01,08,53,18.30
2017,08,01,08,54,18.40
2017,08,01,08,55,18.50
2017,08,01,08,56,18.50
2017,08,01,08,57,18.60
2017,08,01,08,58,18.60
2017,08,01,08,59,18.70
2017,08,01,09,00,18.70
2017,08,01,09,01,18.80
2017,08,01,09,02,18.80
2017,08,01,09,03,18.90
2017,08,01,09,04,19.00
2017,08,01,09,05,19.00
2017,08,01,09,06,19.10
2017,08,01,09,07,19.10
2017,08,01,09,08,19.20
2017,08,01,09,09,19.20
2017,08,01,09,10,19.30
2017,08,01,09,11,19.30
2017,08,01,09,12,19.30
2017,08,01,09,13,19.40
2017,08,01,09,14,19.40
2017,08,01,09,15,19.50
2017,08,01,09,16,19.50
2017,08,01,09,17,19.60
2017,08,01,09,18,19.60
2017,08,01,09,19,19.70
2017,08,01,09,20,19.70
2017,08,01,09,21,19.80
2017,08,01,09,22,19.80
2017,08,01,09,23,19.90
2017,08,01,09,24,19.90
2017,08,01,09,25,20.00
2017,08,01,09,26,20.10
2017,08,01,09,27,20.10
2017,08,01,09,28,20.20
2017,08,01,09,29,20.30
2017,08,01,09,30,20.30
2017,08,01,09,31,20.40
2017,08,01,09,32,20.50
2017,08,01,09,33,20.60
2017,08,01,09,34,20.60
2017,08,01,09,35,20.70
2017,08,01,09,36,20.80
2017,08,01,09,37,20.90
2017,08,01,09,38,21.00
2017,08,01,09,39,21.00
2017,08,01,09,40,21.10
2017,08,01,09,41,21.20
2017,08,01,09,42,21.20
2017,08,01,09,43,21.30
2017,08,01,09,44,21.30
2017,08,01,09,45,21.40
2017,08,01,09,46,21.40
2017,08,01,09,47,21.50
2017,08,01,09,48,21.50
2017,08,01,09,49,21.60
2017,08,01,09,50,21.60
2017,08,01,09,51,21.60
2017,08,01,09,52,21.70
2017,08,01,09,53,21.70
2017,08,01,09,54,21.80
2017,08,01,09,55,21.80
2017,08,01,09,56,21.80
2017,08,01,09,57,21.90
2017,08,01,09,58,21.90
2017,08,01,09,59,22.00
2017,08,01,10,00,22.10
2017,08,01,10,01,22.10
2017,08,01,10,02,22.20
2017,08,01,10,03,22.30
2017,08,01,10,04,22.30
2017,08,01,10,05,22.30
2017,08,01,10,06,22.30
2017,08,01,10,07,22.30
2017,08,01,10,08,22.40
2017,08,01,10,09,22.40
2017,08,01,10,10,22.50
2017,08,01,10,11,22.50
2017,08,01,10,12,22.60
2017,08,01,10,13,22.60
2017,08,01,10,14,22.70
2017,08,01,10,15,22.70
2017,08,01,10,16,22.70
2017,08,01,10,17,22.80
2017,08,01,10,18,22.80
2017,08,01,10,19,22.90
2017,08,01,10,20,22.90
2017,08,01,10,21,22.90
2017,08,01,10,22,22.90
2017,08,01,10,23,22.90
2017,08,01,10,24,23.00
2017,08,01,10,25,23.00
2017,08,01,10,26,23.00
2017,08,01,10,27,23.00
2017,08,01,10,28,23.00
2017,08,01,10,29,22.90
2017,08,01,10,30,22.90
2017,08,01,10,31,22.90
2017,08,01,10,32,22.90
2017,08,01,10,33,22.90
2017,08,01,10,34,22.90
2017,08,01,10,35,22.90
2017,08,01,10,36,22.90
2017,08,01,10,37,23.00
2017,08,01,10,38,23.00
2017,08,01,10,39,23.00
2017,08,01,10,40,23.10
2017,08,01,10,41,23.10
2017,08,01,10,42,23.20
2017,08,01,10,43,23.20
2017,08,01,10,44,23.20
2017,08,01,10,45,23.30
2017,08,01,10,46,23.30
2017,08,01,10,47,23.40
2017,08,01,10,48,23.40
2017,08,01,10,49,23.40
2017,08,01,10,50,23.40
2017,08,01,10,51,23.40
2017,08,01,10,52,23.50
2017,08,01,10,53,23.50
2017,08,01,10,54,23.60
2017,08,01,10,55,23.60
2017,08,01,10,56,23.70
2017,08,01,10,57,23.80
2017,08,01,10,58,23.90
2017,08,01,10,59,23.90
2017,08,01,11,00,24.00
2017,08,01,11,01,24.00
2017,08,01,11,02,24.10
2017,08,01,11,03,24.10
2017,08,01,11,04,24.10
2017,08,01,11,05,24.10
2017,08,01,11,06,24.10
2017,08,01,11,07,24.20
2017,08,01,11,08,24.20
2017,08,01,11,09,24.20
2017,08,01,11,10,24.20
2017,08,01,11,11,24.30
2017,08,01,11,12,24.30
2017,08,01,11,13,24.30
2017,08,01,11,14,24.30
2017,08,01,11,15,24.30
2017,08,01,11,16,24.30
2017,08,01,11,17,24.30
2017,08,01,11,18,24.20
2017,08,01,11,19,24.20
2017,08,01,11,20,24.10
2017,08,01,11,21,24.10
2017,08,01,11,22,24.00
2017,08,01,11,23,24.00
2017,08,01,11,24,24.10
2017,08,01,11,25,24.10
2017,08,01,11,26,24.10
2017,08,01,11,27,24.20
2017,08,01,11,28,24.30
2017,08,01,11,29,24.40
2017,08,01,11,30,24.50
2017,08,01,11,31,24.60
2017,08,01,11,32,24.60
2017,08,01,11,33,24.70
2017,08,01,11,34,24.60
2017,08,01,11,35,24.60
2017,08,01,11,36,24.60
2017,08,01,11,37,24.60
2017,08,01,11,38,24.70
2017,08,01,11,39,24.70
2017,08,01,11,40,24.70
2017,08,01,11,41,24.70
2017,08,01,11,42,24.70
2017,08,01,11,43,24.80
2017,08,01,11,44,24.80
2017,08,01,11,45,24.90
2017,08,01,11,46,24.90
2017,08,01,11,47,25.00
2017,08,01,11,48,25.00
2017,08,01,11,49,25.10
2017,08,01,11,50,25.10
2017,08,01,11,51,25.10
2017,08,01,11,52,25.10
2017,08,01,11,53,25.10
2017,08,01,11,54,25.20
2017,08,01,11,55,25.20
2017,08,01,11,56,25.30
2017,08,01,11,57,25.30
2017,08,01,11,58,25.30
2017,08,01,11,59,25.40
2017,08,01,12,00,25.40
2017,08,01,12,01,25.50
2017,08,01,12,02,25.60
2017,08,01,12,03,25.70
2017,08,01,12,04,25.80
2017,08,01,12,05,25.90
2017,08,01,12,06,26.00
2017,08,01,12,07,26.10
2017,08,01,12,08,26.20
2017,08,01,12,09,26.30
2017,08,01,12,10,26.30
2017,08,01,12,11,26.40
2017,08,01,12,12,26.50
2017,08,01,12,13,26.60
2017,08,01,12,14,26.70
2017,08,01,12,15,26.80
2017,08,01,12,16,26.90
2017,08,01,12,17,26.90
2017,08,01,12,18,27.00
2017,08,01,12,19,27.00
2017,08,01,12,20,26.90
2017,08,01,12,21,26.80
2017,08,01,12,22,26.80
2017,08,01,12,23,26.70
2017,08,01,12,24,26.60
2017,08,01,12,25,26.60
2017,08,01,12,26,26.50
2017,08,01,12,27,26.50
2017,08,01,12,28,26.50
2017,08,01,12,29,26.50
2017,08,01,12,30,26.60
2017,08,01,12,31,26.60
2017,08,01,12,32,26.60
2017,08,01,12,33,26.60
2017,08,01,12,34,26.60
2017,08,01,12,35,26.60
2017,08,01,12,36,26.70
2017,08,01,12,37,26.70
2017,08,01,12,38,26.80
2017,08,01,12,39,26.90
2017,08,01,12,40,27.00
2017,08,01,12,41,27.10
2017,08,01,12,42,27.20
2017,08,01,12,43,27.20
2017,08,01,12,44,27.20
2017,08,01,12,45,27.20
2017,08,01,12,46,27.10
2017,08,01,12,47,27.10
2017,08,01,12,48,27.10
2017,08,01,12,49,27.20
2017,08,01,12,50,27.20
2017,08,01,12,51,27.20
2017,08,01,12,52,27.30
2017,08,01,12,53,27.40
2017,08,01,12,54,27.50
2017,08,01,12,55,27.50
2017,08,01,12,56,27.60
2017,08,01,12,57,27.60
2017,08,01,12,58,27.60
2017,08,01,12,59,27.70
2017,08,01,13,00,27.70
2017,08,01,13,01,27.80
2017,08,01,13,02,27.80
2017,08,01,13,03,27.90
2017,08,01,13,04,28.00
2017,08,01,13,05,28.10
2017,08,01,13,06,28.20
2017,08,01,13,07,28.20
2017,08,01,13,08,28.10
2017,08,01,13,09,28.10
2017,08,01,13,10,28.00
2017,08,01,13,11,27.90
2017,08,01,13,12,27.90
2017,08,01,13,13,28.00
2017,08,01,13,14,28.00
2017,08,01,13,15,28.10
2017,08,01,13,16,28.00
2017,08,01,13,17,28.10
2017,08,01,13,18,28.10
2017,08,01,13,19,28.30
2017,08,01,13,20,28.40
2017,08,01,13,21,28.50
2017,08,01,13,22,28.60
2017,08,01,13,23,28.80
2017,08,01,13,24,28.90
2017,08,01,13,25,29.10
2017,08,01,13,26,29.20
2017,08,01,13,27,29.30
2017,08,01,13,28,29.40
2017,08,01,13,29,29.50
2017,08,01,13,30,29.60
2017,08,01,13,31,29.70
2017,08,01,13,32,29.70
2017,08,01,13,33,29.80
2017,08,01,13,34,29.80
2017,08,01,13,35,29.80
2017,08,01,13,36,29.60
2017,08,01,13,37,29.50
2017,08,01,13,38,29.40
2017,08,01,13,39,29.30
2017,08,01,13,40,29.40
2017,08,01,13,41,29.40
2017,08,01,13,42,29.40
2017,08,01,13,43,29.50
2017,08,01,13,44,29.60
2017,08,01,13,45,29.60
2017,08,01,13,46,29.70
2017,08,01,13,47,29.70
2017,08,01,13,48,29.80
2017,08,01,13,49,29.80
2017,08,01,13,50,29.90
2017,08,01,13,51,29.90
2017,08,01,13,52,30.00
2017,08,01,13,53,30.10
2017,08,01,13,54,30.10
2017,08,01,13,55,30.20
2017,08,01,13,56,30.20
2017,08,01,13,57,30.30
2017,08,01,13,58,30.30
2017,08,01,13,59,30.30
2017,08,01,14,00,30.30
2017,08,01,14,01,30.30
2017,08,01,14,02,30.30
2017,08,01,14,03,30.30
2017,08,01,14,04,30.30
2017,08,01,14,05,30.30
2017,08,01,14,06,30.30
2017,08,01,14,07,30.40
2017,08,01,14,08,30.50
2017,08,01,14,09,30.60
2017,08,01,14,10,30.60
2017,08,01,14,11,30.70
2017,08,01,14,12,30.80
2017,08,01,14,13,30.90
2017,08,01,14,14,30.90
2017,08,01,14,15,31.00
2017,08,01,14,16,31.10
2017,08,01,14,17,31.00
2017,08,01,14,18,30.90
2017,08,01,14,19,30.90
2017,08,01,14,20,30.90
2017,08,01,14,21,30.90
2017,08,01,14,22,31.00
2017,08,01,14,23,31.00
2017,08,01,14,24,31.10
2017,08,01,14,25,31.10
2017,08,01,14,26,31.20
2017,08,01,14,27,31.20
2017,08,01,14,28,31.20
2017,08,01,14,29,31.30
2017,08,01,14,30,31.30
2017,08,01,14,31,31.30
2017,08,01,14,32,31.30
2017,08,01,14,33,31.30
2017,08,01,14,34,31.30
2017,08,01,14,35,31.30
2017,08,01,14,36,31.20
2017,08,01,14,37,31.20
2017,08,01,14,38,31.20
2017,08,01,14,39,31.20
2017,08,01,14,40,31.20
2017,08,01,14,41,31.20
2017,08,01,14,42,31.20
2017,08,01,14,43,31.20
2017,08,01,14,44,31.20
2017,08,01,14,45,31.30
2017,08,01,14,46,31.30
2017,08,01,14,47,31.30
2017,08,01,14,48,31.30
2017,08,01,14,49,31.30
2017,08,01,14,50,31.20
2017,08,01,14,51,31.10
2017,08,01,14,52,31.10
2017,08,01,14,53,31.10
2017,08,01,14,54,31.10
2017,08,01,14,55,31.10
2017,08,01,14,56,31.10
2017,08,01,14,57,31.20
2017,08,01,14,58,31.20
2017,08,01,14,59,31.20
2017,08,01,15,00,31.20
2017,08,01,15,01,31.30
2017,08,01,15,02,31.30
2017,08,01,15,03,31.40
2017,08,01,15,04,31.40
2017,08,01,15,05,31.50
2017,08,01,15,06,31.60
2017,08,01,15,07,31.60
2017,08,01,15,08,31.70
2017,08,01,15,09,31.80
2017,08,01,15,10,31.80
2017,08,01,15,11,31.90
2017,08,01,15,12,32.00
2017,08,01,15,13,32.00
2017,08,01,15,14,32.10
2017,08,01,15,15,32.00
2017,08,01,15,16,32.00
2017,08,01,15,17,32.00
2017,08,01,15,18,32.00
2017,08,01,15,19,32.00
2017,08,01,15,20,31.90
2017,08,01,15,21,31.90
2017,08,01,15,22,31.90
2017,08,01,15,23,32.00
2017,08,01,15,24,32.00
2017,08,01,15,25,32.00
2017,08,01,15,26,32.00
2017,08,01,15,27,32.00
2017,08,01,15,28,32.00
2017,08,01,15,29,31.90
2017,08,01,15,30,31.90
2017,08,01,15,31,31.90
2017,08,01,15,32,31.80
2017,08,01,15,33,31.80
2017,08,01,15,34,31.80
2017,08,01,15,35,31.80
2017,08,01,15,36,31.70
2017,08,01,15,37,31.60
2017,08,01,15,38,31.50
2017,08,01,15,39,31.50
2017,08,01,15,40,31.50
2017,08,01,15,41,31.50
2017,08,01,15,42,31.50
2017,08,01,15,43,31.60
2017,08,01,15,44,31.60
2017,08,01,15,45,31.60
2017,08,01,15,46,31.60
2017,08,01,15,47,31.60
2017,08,01,15,48,31.60
2017,08,01,15,49,31.70
2017,08,01,15,50,31.70
2017,08,01,15,51,31.60
2017,08,01,15,52,31.70
2017,08,01,15,53,31.70
2017,08,01,15,54,31.70
2017,08,01,15,55,31.70
2017,08,01,15,56,31.70
2017,08,01,15,57,31.70
2017,08,01,15,58,31.80
2017,08,01,15,59,31.80
2017,08,01,16,00,31.80
2017,08,01,16,01,31.80
2017,08,01,16,02,31.80
2017,08,01,16,03,31.80
2017,08,01,16,04,31.80
2017,08,01,16,05,31.80
2017,08,01,16,06,31.80
2017,08,01,16,07,31.80
2017,08,01,16,08,31.80
2017,08,01,16,09,31.80
2017,08,01,16,10,31.80
2017,08,01,16,11,31.80
2017,08,01,16,12,31.80
2017,08,01,16,13,31.80
2017,08,01,16,14,31.70
2017,08,01,16,15,31.70
2017,08,01,16,16,31.70
2017,08,01,16,17,31.70
2017,08,01,16,18,31.60
2017,08,01,16,19,31.60
2017,08,01,16,20,31.60
2017,08,01,16,21,31.60
2017,08,01,16,22,31.60
2017,08,01,16,23,31.60
2017,08,01,16,24,31.70
2017,08,01,16,25,31.70
2017,08,01,16,26,31.70
2017,08,01,16,27,31.70
2017,08,01,16,28,31.60
2017,08,01,16,29,31.60
2017,08,01,16,30,31.60
2017,08,01,16,31,31.60
2017,08,01,16,32,31.70
2017,08,01,16,33,31.60
2017,08,01,16,34,31.60
2017,08,01,16,35,31.60
2017,08,01,16,36,31.50
2017,08,01,16,37,31.40
2017,08,01,16,38,31.40
2017,08,01,16,39,31.40
2017,08,01,16,40,31.40
2017,08,01,16,41,31.30
2017,08,01,16,42,31.30
2017,08,01,16,43,31.30
2017,08,01,16,44,31.30
2017,08,01,16,45,31.40
2017,08,01,16,46,31.40
2017,08,01,16,47,31.40
2017,08,01,16,48,31.40
2017,08,01,16,49,31.40
2017,08,01,16,50,31.40
2017,08,01,16,51,31.40
2017,08,01,16,52,31.40
2017,08,01,16,53,31.40
2017,08,01,16,54,31.40
2017,08,01,16,55,31.40
2017,08,01,16,56,31.50
2017,08,01,16,57,31.50
2017,08,01,16,58,31.50
2017,08,01,16,59,31.50
2017,08,01,17,00,31.50
2017,08,01,17,01,31.50
2017,08,01,17,02,31.40
2017,08,01,17,03,31.40
2017,08,01,17,04,31.40
2017,08,01,17,05,31.40
2017,08,01,17,06,31.40
2017,08,01,17,07,31.30
2017,08,01,17,08,31.30
2017,08,01,17,09,31.30
2017,08,01,17,10,31.30
2017,08,01,17,11,31.20
2017,08,01,17,12,31.20
2017,08,01,17,13,31.20
2017,08,01,17,14,31.20
2017,08,01,17,15,31.20
2017,08,01,17,16,31.10
2017,08,01,17,17,31.10
2017,08,01,17,18,31.10
2017,08,01,17,19,31.10